Columbus AFB, MS

11:02 PM CDT on April 20, 2018 (GMT -0500)
Columbus Air Force Base

Weather History for KCBM - December, 2013

Change the Weather History Date:

Sunday, December 1, 2013

  Actual Average Record
Temperature  
Mean Temperature 44 °F -  
Max Temperature 57 °F 58 °F 71 °F (1998)
Min Temperature 32 °F 38 °F 22 °F (2011)
Degree Days  
Heating Degree Days 20    
Moisture  
Dew Point 39 °F    
Average Humidity 66    
Maximum Humidity 94    
Minimum Humidity 38    
Precipitation  
Precipitation 0.06 in - - ()
Sea Level Pressure  
Sea Level Pressure 30.10 in    
Wind  
Wind Speed 3 mph (SSE)    
Max Wind Speed 6 mph    
Max Gust Speed -    
Visibility 6 miles    
Events Rain    
Averages and records for this station are not official NWS values.
T = Trace of Precipitation, MM = Missing Value Source: NWS Daily Summary

Daily Weather History Graph

Daily Weather History Graph

Search for Another Location

Airport or City:

Astronomy

Dec. 01, 2013 Rise Set
Actual Time 6:40 AM CST 4:45 PM CST
Civil Twilight 6:13 AM CST 5:12 PM CST
Nautical Twilight 5:42 AM CST 5:43 PM CST
Astronomical Twilight 5:12 AM CST 6:13 PM CST
Moon 5:02 AM CST (12/1) 3:52 PM CST (12/1)
Length of Visible Light 10h 59m
Length of Day
10h 04m
Waning Crescent, 2% of the Moon is Illuminated
Dec 1
Waning Crescent
Dec 2
New
Dec 9
First Quarter
Dec 17
Full
Dec 25
Last Quarter

Hourly Weather History & Observations

Time (CST) Temp. Windchill Dew Point Humidity Pressure Visibility Wind Dir Wind Speed Gust Speed Precip Events Conditions
12:58 AM 34.9 °F - 32.2 °F 90% 30.27 in 10.0 mi SSE 2.3 mph - N/A   Clear
1:58 AM 35.1 °F 31.0 °F 32.0 °F 89% 30.26 in 10.0 mi SSE 4.6 mph - N/A   Clear
2:58 AM 35.8 °F - 31.8 °F 86% 30.26 in 10.0 mi Calm Calm - N/A   Clear
3:58 AM 33.8 °F - 31.5 °F 91% 30.26 in 10.0 mi Calm Calm - N/A   Clear
4:58 AM 33.4 °F - 31.3 °F 92% 30.27 in 10.0 mi Calm Calm - N/A   Clear
5:58 AM 32.5 °F - 30.7 °F 93% 30.27 in 10.0 mi ESE 2.3 mph - N/A   Clear
6:58 AM 34.0 °F - 32.2 °F 93% 30.26 in 10.0 mi ESE 2.3 mph - N/A   Mostly Cloudy
7:58 AM 39.0 °F 36.8 °F 36.0 °F 89% 30.27 in 10.0 mi SE 3.5 mph - N/A   Overcast
8:23 AM 41.0 °F 38.0 °F 35.6 °F 81% 30.25 in 10.0 mi SE 4.6 mph - N/A   Overcast
8:58 AM 43.7 °F - 36.5 °F 76% 30.27 in 10.0 mi South 2.3 mph - N/A   Overcast
9:58 AM 49.5 °F - 37.6 °F 64% 30.25 in 10.0 mi SSE 3.5 mph - N/A   Scattered Clouds
10:58 AM 54.5 °F - 36.0 °F 50% 30.23 in 10.0 mi SSW 2.3 mph - N/A   Scattered Clouds
11:58 AM 55.6 °F - 34.2 °F 44% 30.18 in 8.0 mi Calm Calm - N/A   Overcast
12:33 PM 57.2 °F - 32.0 °F 38% 30.15 in 4.0 mi Calm Calm - N/A   Haze
12:43 PM 57.2 °F - 33.8 °F 41% 30.15 in 5.0 mi WSW 2.3 mph - N/A   Haze
12:58 PM 57.2 °F - 35.2 °F 44% 30.15 in 6.0 mi South 2.3 mph - N/A   Haze
1:08 PM 57.2 °F - 35.6 °F 44% 30.14 in 4.0 mi SW 1.2 mph - N/A   Haze
1:23 PM 57.2 °F - 35.6 °F 44% 30.12 in 5.0 mi South 3.5 mph - N/A   Haze
1:28 PM 57.2 °F - 35.6 °F 44% 30.12 in 5.0 mi South 4.6 mph - N/A   Haze
1:33 PM 57.2 °F - 35.6 °F 44% 30.12 in 6.0 mi South 2.3 mph - N/A   Haze
1:58 PM 57.4 °F - 36.3 °F 45% 30.12 in 10.0 mi South 3.5 mph - N/A   Overcast
2:58 PM 57.9 °F - 36.0 °F 44% 30.10 in 9.0 mi Variable 2.3 mph - N/A   Overcast
3:43 PM 57.2 °F - 37.4 °F 48% 30.08 in 4.0 mi SE 1.2 mph - N/A   Haze
3:48 PM 57.2 °F - 37.4 °F 48% 30.08 in 2.0 mi SE 2.3 mph - N/A   Haze
3:53 PM 57.2 °F - 37.4 °F 48% 30.08 in 1.8 mi SE 2.3 mph - N/A   Haze
3:58 PM 57.2 °F - 37.4 °F 48% 30.09 in 2.5 mi SSE 1.2 mph - N/A   Haze
4:03 PM 57.2 °F - 37.4 °F 48% 30.08 in 3.0 mi SSE 2.3 mph - N/A   Haze
4:08 PM 57.2 °F - 37.4 °F 48% 30.08 in 6.0 mi SSE 2.3 mph - N/A   Haze
4:33 PM 55.4 °F - 41.0 °F 58% 30.08 in 4.0 mi SE 4.6 mph - N/A   Haze
4:38 PM 55.4 °F - 41.0 °F 58% 30.08 in 2.5 mi SE 3.5 mph - N/A   Haze
4:48 PM 53.6 °F - 41.0 °F 62% 30.07 in 2.0 mi SE 2.3 mph - N/A   Haze
4:53 PM 53.6 °F - 41.0 °F 62% 30.07 in 2.0 mi SE 2.3 mph - N/A   Haze
4:58 PM 54.1 °F - 40.5 °F 60% 30.09 in 2.5 mi SSE 4.6 mph - N/A   Haze
5:03 PM 53.6 °F - 41.0 °F 62% 30.07 in 7.0 mi SSE 4.6 mph - N/A   Overcast
5:43 PM 53.6 °F - 41.0 °F 62% 30.06 in 4.0 mi SE 5.8 mph - N/A   Haze
5:58 PM 53.6 °F - 40.5 °F 61% 30.06 in 3.0 mi SE 5.8 mph - N/A   Haze
6:03 PM 53.6 °F - 41.0 °F 62% 30.05 in 4.0 mi SSE 5.8 mph - N/A   Haze
6:08 PM 53.6 °F - 41.0 °F 62% 30.05 in 8.0 mi SSE 4.6 mph - N/A   Overcast
6:33 PM 53.6 °F - 39.2 °F 58% 30.04 in 4.0 mi SE 2.3 mph - N/A   Haze
6:38 PM 53.6 °F - 39.2 °F 58% 30.04 in 3.0 mi SE 4.6 mph - N/A   Haze
6:43 PM 53.6 °F - 39.2 °F 58% 30.04 in 3.0 mi SSE 4.6 mph - N/A   Haze
6:48 PM 53.6 °F - 41.0 °F 62% 30.04 in 4.0 mi SSE 4.6 mph - N/A   Haze
6:58 PM 52.9 °F - 40.8 °F 64% 30.05 in 4.0 mi SSE 4.6 mph - N/A   Haze
7:18 PM 51.8 °F - 41.0 °F 67% 30.03 in 3.0 mi SE 4.6 mph - N/A   Haze
7:28 PM 51.8 °F - 41.0 °F 67% 30.03 in 4.0 mi SSE 4.6 mph - N/A   Haze
7:33 PM 51.8 °F - 41.0 °F 67% 30.04 in 5.0 mi SSE 4.6 mph - N/A   Haze
7:56 PM 51.8 °F - 41.0 °F 67% 30.05 in 10.0 mi WSW 3.5 mph - N/A Rain Light Rain
7:57 PM 51.8 °F - 41.0 °F 67% 30.05 in 10.0 mi WSW 3.5 mph - N/A Rain Light Rain
7:58 PM 51.8 °F - 41.0 °F 67% 30.06 in 10.0 mi WSW 2.3 mph - N/A Rain Light Rain
8:07 PM 51.8 °F - 42.8 °F 71% 30.04 in 10.0 mi South 1.2 mph - N/A   Overcast
8:47 PM 51.8 °F - 42.8 °F 71% 30.03 in 4.0 mi ESE 4.6 mph - N/A   Haze
8:57 PM 51.8 °F - 42.8 °F 71% 30.03 in 5.0 mi SE 4.6 mph - N/A   Haze
8:58 PM 51.4 °F - 43.3 °F 74% 30.04 in 5.0 mi SE 4.6 mph - 0.00 in   Haze
9:58 PM 51.1 °F - 44.4 °F 78% 30.03 in 10.0 mi South 4.6 mph - N/A   Overcast
10:15 PM 51.8 °F - 41.0 °F 67% 30.03 in 7.0 mi SSW 4.6 mph - N/A Rain Light Rain
10:19 PM 51.8 °F - 42.8 °F 71% 30.03 in 6.0 mi South 5.8 mph - N/A Rain Light Rain
10:29 PM 51.8 °F - 44.6 °F 76% 30.02 in 6.0 mi South 5.8 mph - N/A   Haze
10:32 PM 51.8 °F - 44.6 °F 76% 30.01 in 6.0 mi South 5.8 mph - N/A Rain Light Rain
10:37 PM 50.0 °F - 44.6 °F 82% 30.01 in 7.0 mi South 5.8 mph - N/A Rain Light Rain
10:42 PM 50.0 °F - 44.6 °F 82% 30.01 in 9.0 mi South 5.8 mph - N/A   Overcast
10:58 PM 49.6 °F - 44.8 °F 83% 30.01 in 10.0 mi SSE 5.8 mph - 0.01 in   Overcast
11:03 PM 50.0 °F - 44.6 °F 82% 30.01 in 10.0 mi SSE 5.8 mph - N/A Rain Light Rain
11:43 PM 48.2 °F - 46.4 °F 93% 30.00 in 5.0 mi SE 1.2 mph - N/A Rain Light Rain
11:58 PM 48.7 °F - 47.1 °F 94% 30.00 in 7.0 mi SE 3.5 mph - 0.05 in Rain Light Rain